This is the latest recevied weather packets stored in our database for station/object KF0JHJ. If no packets are shown the sender has not sent any weather packets the latest 10 day(s).
| Time | Temp. | Humidity | Pressure | Rain* | Wind** | Luminosity | Snow |
|---|---|---|---|---|---|---|---|
| 1777829471 | 19.44° C | 38% | 1005.5 hPa | - | - | 613 W/m² | - |
| 1777829168 | 20° C | 40% | 1005.4 hPa | - | - | 675 W/m² | - |
| 1777828866 | 20° C | 39% | 1005.5 hPa | - | - | 694 W/m² | - |
| 1777828562 | 20° C | 39% | 1005.7 hPa | - | - | 678 W/m² | - |
| 1777828259 | 20° C | 38% | 1005.4 hPa | - | - | 689 W/m² | - |
| 1777827955 | 19.44° C | 39% | 1005.5 hPa | - | - | 431 W/m² | - |
| 1777827653 | 19.44° C | 39% | 1005.7 hPa | - | - | 371 W/m² | - |
| 1777827350 | 19.44° C | 39% | 1005.5 hPa | - | - | 591 W/m² | - |
| 1777827046 | 19.44° C | 41% | 1005.8 hPa | - | - | 659 W/m² | - |
| 1777826743 | 18.89° C | 40% | 1005.7 hPa | - | - | 708 W/m² | - |
| 1777826440 | 18.89° C | 39% | 1005.8 hPa | - | - | 708 W/m² | - |
| 1777826137 | 18.89° C | 43% | 1005.5 hPa | - | - | 702 W/m² | - |
| 1777825834 | 18.89° C | 43% | 1005.7 hPa | - | - | 683 W/m² | - |
| 1777825531 | 18.89° C | 43% | 1005.5 hPa | - | - | 294 W/m² | - |
| 1777825229 | 19.44° C | 45% | 1005.6 hPa | - | - | 498 W/m² | - |
| 1777824926 | 18.89° C | 44% | 1005.6 hPa | - | - | 537 W/m² | - |
| 1777824622 | 18.89° C | 46% | 1005.5 hPa | - | - | 511 W/m² | - |
| 1777824319 | 18.89° C | 45% | 1005.4 hPa | - | - | 612 W/m² | - |
| 1777824015 | 18.33° C | 44% | 1005.5 hPa | - | - | 573 W/m² | - |
| 1777823711 | 18.33° C | 46% | 1005.7 hPa | - | - | 625 W/m² | - |
| 1777823409 | 18.33° C | 46% | 1005.2 hPa | - | - | 252 W/m² | - |
| 1777823106 | 18.33° C | 48% | 1005.5 hPa | - | - | 401 W/m² | - |
| 1777822803 | 18.89° C | 46% | 1005.5 hPa | - | - | 181 W/m² | - |
| 1777822501 | 18.33° C | 47% | 1005.5 hPa | - | - | 446 W/m² | - |
| 1777822198 | 18.33° C | 47% | 1005.2 hPa | - | - | 79 W/m² | - |
* Rain since midnight (hover to see other rain measurements)
** Current wind speed in m/s (hover to see current wind gust speed)